[[{"header":{"parameterUnit":"m.s-1","parameterCategory":1,"la1":30.2991,"la2":30.254,"lo1":-89.0895,"lo2":-89.0444,"dy":0.0017,"dx":0.0017,"nx":28,"ny":28,"refTime":"2024-05-05T09:00:00:Z","depth":0,"parameterNumber":2,"parameterNumberName":"U-component_of_WINDS"},"data":[0,0,0,0,0,0,0,0,0,0,0,0,0,0,0,0,0,0,0,0,0,0,0,0,0,0,0,0,0,0,0,0,0,0,0,0,0,0,0,0,0,0,0,0,0,0,0,0,0,0,0,0,0,0,0,0,0,0,-1.637,-1.6371,0,-1.6405,-1.6405,-1.6406,-1.641,-1.641,-1.641,-1.6409,-1.6443,-1.6445,-1.6446,0,0,0,0,0,0,0,0,0,0,0,0,0,-1.6308,-1.6309,-1.637,-1.6371,-1.6371,-1.6405,-1.6405,-1.6406,-1.641,-1.641,-1.641,-1.6409,-1.6443,-1.6444,-1.6446,0,0,0,0,0,0,0,0,0,0,0,0,0,-1.6338,-1.6309,-1.637,-1.6378,-1.6379,-1.6405,-1.6405,-1.6406,-1.641,-1.641,-1.6409,-1.6409,-1.6443,-1.6444,-1.6446,-1.6467,0,0,-1.6452,-1.6452,0,0,0,0,0,0,0,0,-1.6336,-1.634,-1.6376,-1.6377,-1.6378,-1.6403,-1.6396,-1.6426,-1.6411,-1.6398,-1.6409,-1.6409,-1.643,-1.6433,-1.6441,-1.6469,-1.647,-1.6452,-1.6453,-1.6454,-1.6454,0,0,0,0,0,0,0,-1.6334,-1.6339,-1.6384,-1.6377,-1.6378,-1.6379,-1.6383,-1.6402,-1.6416,-1.6399,-1.64,-1.6404,-1.6431,-1.6439,-1.6441,-1.6471,-1.6452,-1.6453,-1.6455,-1.6455,-1.6518,-1.6518,0,0,0,0,0,0,-1.6331,-1.6337,-1.6383,-1.6385,-1.6356,-1.6381,-1.6385,-1.6395,-1.6416,-1.6419,-1.6404,-1.6404,-1.6436,-1.6439,-1.6443,-1.6468,-1.6454,-1.6455,-1.6456,-1.6517,-1.6518,-1.6519,0,0,0,0,0,0,-1.6329,-1.6335,-1.6381,-1.6361,-1.6367,-1.6382,-1.6394,-1.6396,-1.6404,-1.642,-1.6423,-1.641,-1.6436,-1.644,-1.6461,-1.647,-1.6456,-1.6458,-1.6517,-1.6518,-1.6518,-1.652,0,0,0,0,0,0,-1.6328,-1.6334,-1.6342,-1.6361,-1.6368,-1.6399,-1.6395,-1.6397,-1.6408,-1.6408,-1.6426,-1.6428,-1.6436,-1.6458,-1.6463,-1.6472,-1.6459,-1.6516,-1.6517,-1.6518,-1.6519,-1.6521,-1.6522,0,0,0,0,0,-1.6325,-1.6341,-1.6343,-1.6348,-1.6379,-1.64,-1.6404,-1.6412,-1.6408,-1.6416,-1.6427,-1.6428,-1.6468,-1.646,-1.6466,-1.6475,-1.6515,-1.6517,-1.6518,-1.6519,-1.6521,-1.6522,0,0,0,0,0,0,-1.6322,-1.6344,-1.6346,-1.6368,-1.6382,-1.6401,-1.6411,-1.6414,-1.6429,-1.6428,-1.6438,-1.6442,-1.6462,-1.6471,-1.6462,-1.6497,-1.6491,-1.6494,-1.649,-1.6492,-1.6494,-1.6491,-1.6461,0,0,0,0,0,-1.6324,-1.634,-1.6358,-1.6376,-1.6383,-1.6396,-1.6405,-1.6411,-1.6426,-1.6431,-1.6443,-1.6457,-1.6473,-1.6483,-1.6499,-1.6521,-1.6525,-1.653,-1.6532,-1.6533,-1.6535,-1.6547,-1.655,-1.6523,-1.6523,-1.6523,0,0,-1.6328,-1.6342,-1.6351,-1.6376,-1.6387,-1.6403,-1.6401,-1.6418,-1.6429,-1.6434,-1.6454,-1.6464,-1.648,-1.6502,-1.6512,-1.651,-1.6543,-1.6535,-1.6535,-1.6536,-1.6549,-1.6551,-1.6554,-1.6524,-1.6524,-1.6523,0,0,-1.6344,-1.6356,-1.6372,-1.6384,-1.6402,-1.6411,-1.6415,-1.6433,-1.644,-1.6461,-1.6464,-1.6479,-1.6506,-1.6517,-1.6527,-1.6548,-1.655,-1.6553,-1.656,-1.6572,-1.6575,-1.6576,-1.6584,-1.6586,-1.6555,-1.6555,-1.6555,0,-1.6346,-1.6371,-1.638,-1.6397,-1.6408,-1.6414,-1.643,-1.6441,-1.6463,-1.647,-1.6468,-1.6502,-1.6514,-1.6538,-1.6544,-1.6551,-1.6556,-1.655,-1.6574,-1.6576,-1.6577,-1.6585,-1.6587,-1.6555,-1.6555,-1.6555,-1.6555,0,-1.6373,-1.639,-1.6401,-1.6423,-1.6435,-1.6451,-1.6463,-1.6475,-1.6479,-1.6488,-1.651,-1.6524,-1.6543,-1.6549,-1.6553,-1.6575,-1.6573,-1.6572,-1.6566,-1.658,-1.6587,-1.659,-1.6555,-1.6555,-1.6555,-1.6555,0,0,-1.6386,-1.6414,-1.6418,-1.6428,-1.6448,-1.6461,-1.6479,-1.6497,-1.6507,-1.6522,-1.6536,-1.656,-1.6559,-1.657,-1.6576,-1.6587,-1.6603,-1.6585,-1.6585,-1.6587,-1.6627,-1.6627,-1.663,-1.6604,-1.6605,-1.6605,-1.6625,0,-1.6404,-1.6435,-1.6444,-1.647,-1.6486,-1.6492,-1.6507,-1.6521,-1.6531,-1.6545,-1.6555,-1.6572,-1.657,-1.6577,-1.6588,-1.6598,-1.6611,-1.6597,-1.6617,-1.6618,-1.6612,-1.6633,-1.6633,-1.6651,-1.6628,-1.6628,-1.6629,0,-1.6428,-1.6444,-1.6472,-1.6491,-1.6498,-1.6511,-1.653,-1.6544,-1.656,-1.6566,-1.6579,-1.6584,-1.6602,-1.6597,-1.6622,-1.6612,-1.6621,-1.6628,-1.6629,-1.663,-1.6624,-1.6635,-1.6657,-1.666,-1.6633,-1.6633,-1.6632,0,-1.6435,-1.6463,-1.6484,-1.6492,-1.6515,-1.6524,-1.6534,-1.655,-1.6561,-1.6577,-1.6584,-1.6602,-1.6612,-1.6625,-1.6635,-1.663,-1.666,-1.6655,-1.6665,-1.6664,-1.667,-1.6669,-1.6693,-1.6677,-1.6677,-1.6677,-1.6676,0,-1.6453,-1.6469,-1.6487,-1.6499,-1.6518,-1.6529,-1.6548,-1.6558,-1.6572,-1.6587,-1.6593,-1.6606,-1.6619,-1.6634,-1.6642,-1.6662,-1.6666,-1.6671,-1.6673,-1.667,-1.667,-1.6676,-1.6675,-1.6677,-1.6677,-1.6677,-1.6677,0,-1.6463,-1.6475,-1.6498,-1.6518,-1.6524,-1.6536,-1.6554,-1.6566,-1.6576,-1.6594,-1.6599,-1.6614,-1.6633,-1.6644,-1.6667,-1.6673,-1.6694,-1.6696,-1.6688,-1.6689,-1.6698,-1.6697,-1.6726,-1.6731,-1.6712,-1.6712,-1.6712,0,-1.6473,-1.6486,-1.6508,-1.6518,-1.6529,-1.6545,-1.6557,-1.6568,-1.658,-1.66,-1.661,-1.6629,-1.6644,-1.6673,-1.6686,-1.6704,-1.6705,-1.6715,-1.6708,-1.6705,-1.6705,-1.6704,-1.6705,-1.6715,-1.6715,-1.6716,-1.6716,0,-1.649,-1.6496,-1.6512,-1.6531,-1.6545,-1.656,-1.6575,-1.6583,-1.6597,-1.661,-1.6629,-1.6641,-1.6665,-1.6683,-1.6703,-1.6713,-1.6716,-1.6718,-1.6721,-1.6718,-1.6713,-1.6715,-1.6691,-1.6717,-1.6717,-1.6717,-1.6717,-1.6717,-1.6501,-1.6513,-1.653,-1.6548,-1.6561,-1.6575,-1.6588,-1.66,-1.6616,-1.6636,-1.6642,-1.6662,-1.6679,-1.6705,-1.6715,-1.6731,-1.673,-1.6734,-1.6735,-1.6736,-1.6736,-1.6711,-1.6734,-1.6734,-1.6734,-1.6734,-1.6734,0,-1.6518,-1.653,-1.6546,-1.6567,-1.6582,-1.6585,-1.6602,-1.6614,-1.6631,-1.6647,-1.6662,-1.6684,-1.6702,-1.6717,-1.6736,-1.6745,-1.6747,-1.675,-1.6749,-1.6751,-1.6736,-1.6731,-1.6748,-1.6748,-1.6748,-1.6748,-1.6748,-1.6748,-1.6528,-1.6549,-1.6557,-1.6584,-1.6595,-1.6615,-1.6624,-1.6638,-1.665,-1.6674,-1.669,-1.6699,-1.6715,-1.6735,-1.6751,-1.6755,-1.6762,-1.6764,-1.6768,-1.6753,-1.6752,-1.675,-1.6746,-1.6765,-1.6765,-1.6781,-1.6781,-1.6781]},{"header":{"parameterUnit":"m.s-1","parameterCategory":1,"la1":30.2991,"la2":30.254,"lo1":-89.0895,"lo2":-89.0444,"dy":0.0017,"dx":0.0017,"nx":28,"ny":28,"refTime":"2024-05-05T09:00:00:Z","depth":0,"parameterNumber":3,"parameterNumberName":"V-component_of_WINDS"},"data":[0,0,0,0,0,0,0,0,0,0,0,0,0,0,0,0,0,0,0,0,0,0,0,0,0,0,0,0,0,0,0,0,0,0,0,0,0,0,0,0,0,0,0,0,0,0,0,0,0,0,0,0,0,0,0,0,0,0,2.7236,2.7236,0,2.7214,2.7214,2.7213,2.7123,2.7121,2.7119,2.7117,2.7096,2.7097,2.7099,0,0,0,0,0,0,0,0,0,0,0,0,0,2.7202,2.7204,2.7236,2.7236,2.7236,2.7214,2.7214,2.7213,2.7124,2.7121,2.7119,2.7116,2.7095,2.7097,2.7099,0,0,0,0,0,0,0,0,0,0,0,0,0,2.7203,2.7204,2.7236,2.7188,2.7184,2.7214,2.7214,2.7213,2.7124,2.7121,2.7118,2.7115,2.7095,2.7097,2.7099,2.7174,0,0,2.7105,2.7106,0,0,0,0,0,0,0,0,2.7203,2.7204,2.7196,2.7192,2.7187,2.7168,2.7194,2.72,2.7125,2.7147,2.7117,2.7113,2.7123,2.7122,2.7125,2.7173,2.7172,2.7105,2.7107,2.7108,2.7108,0,0,0,0,0,0,0,2.7203,2.7204,2.7227,2.7196,2.719,2.7168,2.7165,2.7195,2.7153,2.7145,2.7138,2.7137,2.712,2.7123,2.7124,2.7172,2.7105,2.7107,2.7109,2.7109,2.7281,2.7284,0,0,0,0,0,0,2.7209,2.7205,2.7228,2.7227,2.7187,2.7171,2.7168,2.7177,2.7152,2.7145,2.7139,2.7133,2.7121,2.7121,2.7123,2.7208,2.7108,2.711,2.7111,2.7277,2.7281,2.7285,0,0,0,0,0,0,2.7209,2.7212,2.7229,2.7214,2.7214,2.7175,2.7187,2.7179,2.7182,2.7148,2.714,2.7151,2.7119,2.712,2.7162,2.7206,2.711,2.7112,2.7274,2.7279,2.7283,2.7381,0,0,0,0,0,0,2.7208,2.7213,2.7241,2.7215,2.7216,2.7269,2.719,2.718,2.7186,2.7176,2.7156,2.715,2.7116,2.7159,2.7164,2.7208,2.7114,2.7269,2.7276,2.7282,2.7374,2.7389,2.7402,0,0,0,0,0,2.7207,2.727,2.7242,2.7246,2.725,2.7271,2.7271,2.7231,2.719,2.7217,2.7196,2.7151,2.7201,2.7164,2.7169,2.7214,2.7266,2.7274,2.7281,2.7368,2.7386,2.7402,0,0,0,0,0,0,2.7301,2.7265,2.7235,2.729,2.7285,2.7256,2.729,2.7252,2.7258,2.7249,2.7199,2.7195,2.7245,2.7233,2.7193,2.7285,2.7226,2.7235,2.729,2.7308,2.7321,2.7323,2.7116,0,0,0,0,0,2.7329,2.7349,2.7316,2.7369,2.7367,2.7329,2.7337,2.7306,2.7298,2.7296,2.7277,2.7271,2.7286,2.7296,2.7308,2.7372,2.7366,2.7406,2.742,2.7431,2.7439,2.7472,2.7489,2.731,2.7309,2.7309,0,0,2.7385,2.7368,2.7384,2.7387,2.7379,2.7401,2.7328,2.7355,2.737,2.73,2.7338,2.7324,2.7315,2.7369,2.7391,2.7361,2.7487,2.7441,2.745,2.7452,2.7481,2.7498,2.7514,2.7315,2.7314,2.7313,0,0,2.7499,2.7488,2.753,2.7523,2.7511,2.7486,2.7496,2.7473,2.7461,2.7499,2.7446,2.7465,2.7491,2.7486,2.7487,2.76,2.7559,2.7605,2.7678,2.7711,2.7725,2.7737,2.7777,2.7791,2.7613,2.7614,2.7614,0,2.757,2.7601,2.7557,2.7586,2.7589,2.7526,2.7568,2.7564,2.7557,2.7561,2.7527,2.7558,2.7548,2.7599,2.7626,2.763,2.764,2.7607,2.7726,2.7738,2.7749,2.7786,2.7801,2.7619,2.7619,2.7618,2.7617,0,2.7689,2.7712,2.7747,2.7741,2.7748,2.7784,2.7746,2.7758,2.7727,2.7706,2.7745,2.773,2.7737,2.7747,2.7717,2.7794,2.7776,2.7735,2.7675,2.7772,2.7806,2.782,2.7627,2.7625,2.7624,2.7622,0,0,2.7861,2.783,2.7843,2.784,2.7822,2.7839,2.7873,2.7879,2.789,2.7888,2.7915,2.7939,2.7901,2.7902,2.7871,2.79,2.799,2.7856,2.7855,2.788,2.8073,2.8103,2.812,2.7963,2.7965,2.7967,2.8074,0,2.7968,2.8022,2.7984,2.8045,2.8065,2.8005,2.8034,2.8027,2.8008,2.8023,2.8002,2.8019,2.7968,2.7968,2.7994,2.7973,2.8027,2.7965,2.7987,2.7988,2.799,2.8138,2.817,2.827,2.8087,2.8089,2.809,0,2.8101,2.8103,2.8167,2.8145,2.8151,2.8178,2.8181,2.8196,2.8186,2.817,2.8172,2.8134,2.8166,2.8107,2.815,2.8109,2.8116,2.8107,2.811,2.8109,2.8045,2.8141,2.8302,2.8317,2.8111,2.8109,2.8108,0,2.8218,2.8238,2.8278,2.8277,2.8253,2.8273,2.8264,2.8252,2.8258,2.8261,2.8264,2.8271,2.8275,2.8281,2.8246,2.8207,2.8294,2.8232,2.8281,2.8282,2.8301,2.83,2.8465,2.8308,2.8307,2.8307,2.8307,0,2.8342,2.8382,2.833,2.8355,2.8399,2.8354,2.8399,2.8384,2.8374,2.8394,2.8344,2.8365,2.8318,2.8334,2.8307,2.8347,2.8349,2.8337,2.8329,2.8341,2.8342,2.8344,2.8336,2.8311,2.831,2.8309,2.8309,0,2.848,2.8447,2.8486,2.846,2.8454,2.8488,2.8466,2.8488,2.8465,2.8492,2.8496,2.8462,2.8478,2.8444,2.8456,2.8438,2.8493,2.8475,2.8496,2.849,2.8541,2.8536,2.8711,2.8732,2.8563,2.8564,2.8566,0,2.856,2.859,2.8567,2.8577,2.857,2.8588,2.8593,2.8551,2.8559,2.8551,2.8575,2.8587,2.8594,2.8623,2.8599,2.8608,2.8589,2.865,2.859,2.8601,2.8589,2.8587,2.859,2.8662,2.8664,2.8666,2.8667,0,2.8706,2.8688,2.8698,2.8703,2.8711,2.8713,2.8712,2.8723,2.8678,2.869,2.8706,2.8712,2.8724,2.8736,2.874,2.8731,2.8692,2.8686,2.8698,2.871,2.872,2.8714,2.8529,2.8682,2.8681,2.868,2.8679,2.8678,2.8817,2.884,2.8828,2.8841,2.8835,2.8835,2.8854,2.8834,2.8846,2.8852,2.8826,2.8848,2.8838,2.8839,2.8834,2.8851,2.8824,2.8841,2.8845,2.885,2.8857,2.8719,2.8852,2.8851,2.8851,2.885,2.885,0,2.8959,2.8948,2.8961,2.8959,2.897,2.8932,2.8928,2.894,2.8959,2.8953,2.8961,2.898,2.8992,2.8969,2.8978,2.8996,2.8978,2.8999,2.8997,2.8996,2.8882,2.887,2.9013,2.9013,2.9013,2.9013,2.9013,2.9013,2.9034,2.9072,2.9053,2.9087,2.9076,2.9096,2.9097,2.9096,2.9091,2.9114,2.9123,2.9108,2.9096,2.9103,2.9113,2.9106,2.9111,2.9139,2.9126,2.902,2.9004,2.8988,2.8977,2.9141,2.9141,2.9238,2.9239,2.924]}]]